timestamp,surface_pressure_avg,surface_temp_avg,battery_voltage,lat,long
2019-12-03 00:09:01+00:00,233.8831,4.8,12.73,47.84626,-54.09684
2019-12-03 00:19:01+00:00,234.9814,4.8,12.73,47.84626,-54.09684
2019-12-03 00:29:01+00:00,240.5831,4.8,12.73,47.84626,-54.09684
2019-12-03 00:39:01+00:00,244.8231,4.7,12.73,47.84626,-54.09684
2019-12-03 00:49:01+00:00,241.9798,4.7,12.73,47.84626,-54.09684
2019-12-03 00:59:01+00:00,236.0731,4.67,12.73,47.84626,-54.09684
2019-12-03 01:09:01+00:00,239.6581,4.66,12.73,47.84626,-54.09684
2019-12-03 01:19:01+00:00,252.7381,4.7,12.73,47.84626,-54.09684
2019-12-03 01:29:01+00:00,264.7631,4.68,12.73,47.84626,-54.09684
2019-12-03 01:39:01+00:00,269.3497,4.68,12.73,47.84626,-54.09684
2019-12-03 01:49:01+00:00,274.3897,4.7,12.73,47.84626,-54.09684
2019-12-03 01:59:01+00:00,272.6831,4.76,12.73,47.84626,-54.09684
2019-12-03 02:09:01+00:00,278.0497,4.87,12.73,47.84626,-54.09684
2019-12-03 02:19:01+00:00,285.0431,5.0,12.65,47.84626,-54.09684
2019-12-03 02:29:01+00:00,288.223,5.0,12.65,47.84626,-54.09684
2019-12-03 02:39:01+00:00,285.7164,5.05,12.65,47.84626,-54.09684
2019-12-03 02:49:01+00:00,292.368,5.06,12.65,47.84626,-54.09684
2019-12-03 02:59:01+00:00,297.5864,5.05,12.65,47.84626,-54.09684
2019-12-03 03:09:01+00:00,296.343,5.0,12.65,47.84626,-54.09684
2019-12-03 03:19:01+00:00,292.1664,5.0,12.65,47.84626,-54.09684
2019-12-03 03:29:01+00:00,294.6564,5.0,12.65,47.84626,-54.09684
2019-12-03 03:39:01+00:00,293.2364,4.96,12.65,47.84626,-54.09684
2019-12-03 03:49:01+00:00,296.2013,4.94,12.65,47.84626,-54.09684
2019-12-03 03:59:01+00:00,300.3513,4.96,12.65,47.84626,-54.09684
2019-12-03 04:09:01+00:00,307.0063,4.98,12.65,47.84626,-54.09684
2019-12-03 04:19:01+00:00,305.7496,5.0,12.65,47.84626,-54.09684
2019-12-03 04:29:01+00:00,303.5197,5.0,12.65,47.84626,-54.09684
2019-12-03 04:39:01+00:00,306.6597,4.99,12.65,47.84626,-54.09684
2019-12-03 04:49:01+00:00,309.0963,5.0,12.65,47.84626,-54.09684
2019-12-03 04:59:01+00:00,306.863,5.0,12.65,47.84626,-54.09684
2019-12-03 05:09:01+00:00,308.1564,4.97,12.65,47.84626,-54.09684
2019-12-03 05:19:01+00:00,313.8246,4.97,12.65,47.84626,-54.09684
2019-12-03 05:29:01+00:00,311.2964,5.0,12.65,47.84626,-54.09684
2019-12-03 05:39:01+00:00,305.9964,4.9,12.65,47.84626,-54.09684
2019-12-03 05:49:01+00:00,306.728,4.9,12.65,47.84626,-54.09684
2019-12-03 05:59:01+00:00,309.8896,4.94,12.65,47.84626,-54.09684
2019-12-03 06:09:01+00:00,303.7046,4.9,12.65,47.84626,-54.09684
2019-12-03 06:19:01+00:00,303.243,4.9,12.65,47.84626,-54.09684
2019-12-03 06:29:01+00:00,302.0198,4.9,12.65,47.84626,-54.09684
2019-12-03 06:39:01+00:00,291.4414,4.88,12.65,47.84626,-54.09684
2019-12-03 06:49:01+00:00,284.5798,4.87,12.65,47.84626,-54.09684
2019-12-03 06:59:01+00:00,288.6113,4.89,12.65,47.84626,-54.09684
2019-12-03 07:09:01+00:00,283.5897,4.89,12.65,47.84626,-54.09684
2019-12-03 07:19:01+00:00,271.0764,4.8,12.65,47.84626,-54.09684
2019-12-03 07:29:01+00:00,265.4498,4.8,12.65,47.84626,-54.09684
2019-12-03 07:39:01+00:00,269.5197,4.8,12.65,47.84626,-54.09684
2019-12-03 07:49:01+00:00,265.3214,4.8,12.65,47.84626,-54.09684
2019-12-03 07:59:01+00:00,254.7114,4.8,12.65,47.84626,-54.09684
2019-12-03 08:09:01+00:00,251.4498,4.8,12.65,47.84626,-54.09684
2019-12-03 08:19:01+00:00,249.8497,4.8,12.65,47.84626,-54.09684
2019-12-03 08:29:01+00:00,239.6947,4.8,12.65,47.84626,-54.09684
2019-12-03 08:39:01+00:00,229.0864,4.79,12.65,47.84626,-54.09684
2019-12-03 08:49:01+00:00,228.6431,4.7,12.65,47.84626,-54.09684
2019-12-03 08:59:01+00:00,225.2698,4.7,12.65,47.84626,-54.09684
2019-12-03 09:09:01+00:00,218.9548,4.7,12.65,47.84626,-54.09684
2019-12-03 09:19:01+00:00,222.3064,4.7,12.57,47.84626,-54.09684
2019-12-03 09:29:01+00:00,235.3964,4.7,12.57,47.84626,-54.09684
2019-12-03 09:39:01+00:00,238.1248,4.7,12.57,47.84626,-54.09684
2019-12-03 09:49:01+00:00,227.3898,4.7,12.57,47.84626,-54.09684
2019-12-03 09:59:01+00:00,226.0881,4.7,12.57,47.84626,-54.09684
2019-12-03 10:09:01+00:00,239.7581,4.7,12.57,47.84626,-54.09684
2019-12-03 10:19:01+00:00,242.2664,4.7,12.65,47.84626,-54.09684
2019-12-03 10:29:01+00:00,233.2482,4.7,12.65,47.84626,-54.09684
2019-12-03 10:39:01+00:00,232.5348,4.7,12.65,47.84626,-54.09684
2019-12-03 10:49:01+00:00,241.1931,4.72,12.65,47.84626,-54.09684
2019-12-03 10:59:01+00:00,245.3364,4.7,12.65,47.84626,-54.09684
2019-12-03 11:09:01+00:00,249.1331,4.75,12.65,47.84626,-54.09684
2019-12-03 11:19:01+00:00,255.6547,4.81,12.65,47.84626,-54.09684
2019-12-03 11:29:01+00:00,260.6431,4.89,12.65,47.84626,-54.09684
2019-12-03 11:39:01+00:00,262.5031,4.89,12.65,47.84626,-54.09684
2019-12-03 11:49:01+00:00,265.0114,4.9,12.65,47.84626,-54.09684
2019-12-03 11:59:01+00:00,266.0298,4.9,12.65,47.84626,-54.09684
2019-12-03 12:09:01+00:00,263.5831,4.9,12.65,47.84626,-54.09684
2019-12-03 12:19:01+00:00,262.7064,4.8,12.65,47.84626,-54.09684
2019-12-03 12:29:01+00:00,264.0547,4.8,12.65,47.84626,-54.09684
2019-12-03 12:39:01+00:00,267.6647,4.7,12.65,47.84626,-54.09684
2019-12-03 12:49:01+00:00,272.453,4.7,12.65,47.84626,-54.09684
2019-12-03 12:59:01+00:00,276.6814,4.67,12.65,47.84626,-54.09684
2019-12-03 13:09:01+00:00,273.8063,4.5,12.65,47.84626,-54.09684
2019-12-03 13:19:01+00:00,278.8464,4.69,12.65,47.84626,-54.09684
2019-12-03 13:29:01+00:00,289.46299999999997,4.7,12.65,47.84626,-54.09684
2019-12-03 13:39:01+00:00,294.3881,4.5,12.65,47.84626,-54.09684
2019-12-03 13:49:01+00:00,295.9346,4.5,12.65,47.84626,-54.09684
2019-12-03 13:59:01+00:00,303.7346,4.63,12.65,47.84626,-54.09684
2019-12-03 14:09:01+00:00,309.8531,4.6,12.65,47.84626,-54.09684
2019-12-03 14:19:01+00:00,307.0348,4.5,12.73,47.84626,-54.09684
2019-12-03 14:29:01+00:00,306.7964,4.49,12.73,47.84626,-54.09684
2019-12-03 14:39:01+00:00,316.6413,4.4,12.73,47.84626,-54.09684
2019-12-03 14:49:01+00:00,323.0081,4.4,12.73,47.84626,-54.09684
2019-12-03 14:59:01+00:00,330.24300000000005,4.4,12.73,47.84626,-54.09684
2019-12-03 15:09:01+00:00,341.4464,4.39,12.73,47.84626,-54.09684
2019-12-03 15:19:01+00:00,349.8962,4.19,12.81,47.84626,-54.09684
2019-12-03 15:29:01+00:00,346.673,4.13,12.81,47.84626,-54.09684
2019-12-03 15:39:01+00:00,345.5546,4.42,12.81,47.84626,-54.09684
2019-12-03 15:49:01+00:00,349.7845,4.5,12.81,47.84626,-54.09684
2019-12-03 15:59:01+00:00,347.7681,4.4,12.81,47.84626,-54.09684
2019-12-03 16:09:01+00:00,341.0845,4.4,12.81,47.84626,-54.09684
2019-12-03 16:19:01+00:00,345.923,4.36,12.73,47.84626,-54.09684
2019-12-03 16:29:01+00:00,351.5063,4.3,12.73,47.84626,-54.09684
2019-12-03 16:39:01+00:00,348.9579,4.2,12.73,47.84626,-54.09684
2019-12-03 16:49:01+00:00,347.7613,4.1,12.73,47.84626,-54.09684
2019-12-03 16:59:01+00:00,356.4397,4.36,12.73,47.84626,-54.09684
2019-12-03 17:09:01+00:00,359.0063,4.4,12.73,47.84626,-54.09684
2019-12-03 17:19:01+00:00,348.8395,4.2,12.73,47.84626,-54.09684
2019-12-03 17:29:01+00:00,351.9246,4.54,12.73,47.84626,-54.09684
2019-12-03 17:39:01+00:00,363.6897,4.8,12.73,47.84626,-54.09684
2019-12-03 17:49:01+00:00,364.3264,4.8,12.73,47.84626,-54.09684
2019-12-03 17:59:01+00:00,359.1046,4.8,12.73,47.84626,-54.09684
2019-12-03 18:09:01+00:00,350.7747,4.8,12.73,47.84626,-54.09684
2019-12-03 18:19:01+00:00,346.7113,4.8,12.65,47.84626,-54.09684
2019-12-03 18:29:01+00:00,348.3446,4.8,12.65,47.84626,-54.09684
2019-12-03 18:39:01+00:00,340.533,4.8,12.65,47.84626,-54.09684
2019-12-03 18:49:01+00:00,330.913,4.8,12.65,47.84626,-54.09684
2019-12-03 18:59:01+00:00,317.5863,4.82,12.65,47.84626,-54.09684
2019-12-03 19:09:01+00:00,309.9064,4.89,12.65,47.84626,-54.09684
2019-12-03 19:19:01+00:00,294.953,4.9,12.65,47.84626,-54.09684
2019-12-03 19:29:01+00:00,293.3063,4.9,12.65,47.84626,-54.09684
2019-12-03 19:39:01+00:00,300.3163,4.91,12.65,47.84626,-54.09684
2019-12-03 19:49:01+00:00,300.918,4.95,12.65,47.84626,-54.09684
2019-12-03 19:59:01+00:00,285.3931,4.9,12.65,47.84626,-54.09684
2019-12-03 20:09:01+00:00,278.348,4.9,12.65,47.84626,-54.09684
2019-12-03 20:19:01+00:00,278.753,4.91,12.65,47.84626,-54.09684
2019-12-03 20:29:01+00:00,270.8764,4.7,12.65,47.84626,-54.09684
2019-12-03 20:39:01+00:00,251.4881,4.52,12.65,47.84626,-54.09684
2019-12-03 20:49:01+00:00,246.4598,4.2,12.65,47.84626,-54.09684
2019-12-03 20:59:01+00:00,250.058,4.42,12.65,47.84626,-54.09684
2019-12-03 21:09:01+00:00,242.8364,4.12,12.65,47.84626,-54.09684
2019-12-03 21:19:01+00:00,238.4031,4.11,12.65,47.84626,-54.09684
2019-12-03 21:29:01+00:00,247.5631,4.16,12.65,47.84626,-54.09684
2019-12-03 21:39:01+00:00,260.4531,4.4,12.65,47.84626,-54.09684
2019-12-03 21:49:01+00:00,262.4297,4.5,12.65,47.84626,-54.09684
2019-12-03 21:59:01+00:00,258.7297,4.5,12.65,47.84626,-54.09684
2019-12-03 22:09:01+00:00,256.3281,4.4,12.65,47.84626,-54.09684
2019-12-03 22:19:01+00:00,255.4282,4.45,12.65,47.84626,-54.09684
2019-12-03 22:29:01+00:00,254.278,4.76,12.65,47.84626,-54.09684
2019-12-03 22:39:01+00:00,254.5648,4.9,12.65,47.84626,-54.09684
2019-12-03 22:49:01+00:00,247.3664,4.87,12.65,47.84626,-54.09684
2019-12-03 22:59:01+00:00,241.8463,4.6,12.65,47.84626,-54.09684
2019-12-03 23:09:01+00:00,251.5531,4.85,12.65,47.84626,-54.09684
2019-12-03 23:19:01+00:00,257.6231,5.0,12.65,47.84626,-54.09684
2019-12-03 23:29:01+00:00,259.3398,5.06,12.65,47.84626,-54.09684
2019-12-03 23:39:01+00:00,265.3314,5.09,12.65,47.84626,-54.09684
2019-12-03 23:49:01+00:00,272.3964,5.1,12.65,47.84626,-54.09684
2019-12-03 23:59:01+00:00,265.4681,5.1,12.65,47.84626,-54.09684
